星链-6328 (STARLINK-6328 )

导读

STARLINK-6328是美国SpaceX星链互联网卫星家族的一员,于2023年5月14日发射升空,属于星链项目低轨卫星星座组网卫星。它运行在近地轨道,承担着为全球偏远地区、移动载体等提供高速宽带互联网接入服务的任务,进一步扩展了星链星座的覆盖范围与服务能力。

基本信息
目录编号:
56523
目录名称:
STARLINK-6328
国际标识:
2023-065W
轨道中心:
EARTH
卫星名称:
星链-6328
卫星全名:
星链-6328 (STARLINK-6328 )
卫星状态:
在轨 (已飞行1127 天)
发射日期:
2023-05-14 UTC
国别 :
美国 (US)
星等 :
--
轨道信息
数据来源 国际轨道数据
星历时间: 2026-06-14T15:45:11+0800
12小时前
查看轨道信息
半长轴: 6861.191km
偏心率: 0.0001267
轨道倾角: 43.005°
近地点辐角 264.343°
升交点赤经 27.160°
平近点角 95.728°
近地点: 482.184km
远地点: 483.924km
周期: 94.267分钟
每日圈数: 15.275786
详细信息
固有亮度:
5
最大亮度:
2.5
卫星平台:
Starlink v1.5
覆盖范围:
全球
运营商:
太空探索技术公司
运营商所在国:
美国
制造商(研发单位):
太空探索技术公司
制造商所在国:
美国
使用方式:
暂无
卫星简介
星链(Starlink)计划是由太空探索技术公司(SpaceX)提出的一个巨型低轨卫星互联网星座项目,计划在2019年至2024年间在太空搭建由约1.2万颗卫星组成的“星链”网络,其中1584颗将部署在地球上空550千米处的近地轨道,并从2020年开始工作。该卫星仍在工作。
2D轨道图
3D轨道图
轨道高度分析图
轨道倾角分析图
轨道综合分析图
查看轨道综合分析图